Location: Hillern
(53.0557°N, 9.8577°E)
Time: 10:32:25
(UTC+00:00)

NOSS 2-1 (C) - Pass Details

Date: 19 May 2025
Orbit: 378 x 1699 km, 63.3° (Epoch: 23 June)

Event Time Altitude Azimuth Distance (km) Brightness Sun altitude
Exits shadow 22:55:32 33° 230° (SW) 721 3.6 -16.8°
Maximum altitude 22:56:50 86° 317° (NW) 403 2.6 -16.8°
Drops below altitude 10° 22:59:49 10° 47° (NE) 1,404 5.9 -16.9°
Sets 23:01:47 0° 48° (NE) 2,270 7.0 -16.9°
